User: anonymous   Login
Location: Fort Wayne
(41.1310°N, 85.1290°W)
Time: 04:40:02
(UTC-04:00)
Language:

Tiros 1 despin weight - Orbit

View from above orbital plane
View from above orbital plane
View from above satellite
View from above satellite

Ground track
Ground track

The orbit data is extracted from the following two-line orbital elements,

1 00115U 60002D   14295.73717346  .00003901  00000-0  52094-3 0  4973
2 00115 048.1641 112.6133 0036413 158.7396 270.4222 14.80940195906540
Epoch (UTC): 22 October 2014 17:41:31
Eccentricity: 0.0036413
inclination: 48.1641°
perigee height: 601 km
apogee height: 652 km
right ascension of ascending node: 112.6133°
argument of perigee: 158.7396°
revolutions per day: 14.80940195
mean anomaly at epoch: 270.4222°
orbit number at epoch: 90654

The dashed part of the orbit path shows where the satellite is in the earth's shadow,  

DLR